Location: Karlsruhe
(49.0069°N, 8.4037°E)
Time: 14:41:59
(UTC+02:00)

ISS - Visible Passes

Search period start: 26 September 2017 00:00
Search period end: 06 October 2017 00:00
Orbit: 401 x 407 km, 51.6° (Epoch: 26 September)

Date Brightness Start Highest point End Pass type
(mag) Time Alt. Az. Time Alt. Az. Time Alt. Az.
26 Sep -2.3 20:27:07 10° S 20:29:37 20° SE 20:29:51 20° SE visible
26 Sep -0.7 22:02:28 10° WSW 22:02:32 10° WSW 22:02:32 10° WSW visible
27 Sep -3.2 21:10:11 10° SW 21:12:41 45° SSW 21:12:41 45° SSW visible
28 Sep -3.2 20:18:04 10° SW 20:21:07 37° SSE 20:22:41 22° E visible
28 Sep -1.2 21:54:15 10° W 21:55:20 19° W 21:55:20 19° W visible
29 Sep -3.9 21:01:49 10° WSW 21:05:05 84° NNW 21:05:12 81° NNE visible
30 Sep -3.8 20:09:27 10° WSW 20:12:42 68° SSE 20:14:57 18° ENE visible
30 Sep -1.5 21:46:03 10° W 21:47:36 24° WNW 21:47:36 24° WNW visible
01 Oct -3.5 20:53:32 10° W 20:56:47 60° N 20:57:16 52° NNE visible
02 Oct -3.7 20:01:02 10° WSW 20:04:19 76° NNW 20:06:53 16° ENE visible
02 Oct -1.7 21:37:48 10° WNW 21:39:31 27° WNW 21:39:31 27° WNW visible
03 Oct -3.3 20:45:16 10° W 20:48:29 51° N 20:49:05 44° NE visible
04 Oct -3.4 19:52:43 10° W 19:55:57 57° N 19:58:36 14° ENE visible
04 Oct -1.8 21:29:25 10° WNW 21:31:15 29° WNW 21:31:15 29° WNW visible
05 Oct -3.4 20:36:55 10° WNW 20:40:08 52° N 20:40:45 44° NE visible
